Home > Weather > Guangzhou > Past weeks

Flag for China Past Weather in Guangzhou, Guangdong, China — Yesterday and Last 2 Weeks

Now
90 °F

Partly sunny.


Feels Like: 105 °F
Forecast: 79 / 89 °F
Wind: No wind

Location: Canton Airport

Current Time: May 29, 2016 at 2:00:40 PM

Latest Report: May 29, 2016 at 1:30 PM


Visibility: 5 mi

Pressure: 29.71 "Hg

Humidity: 71%

Dew Point: 79 °F

Location of GuangzhouLocation

Past Weather in Guangzhou — Graph

°F

Guangzhou Temperature Yesterday

Maximum temperature yesterday: 86 °F (at 2:30 PM)
Minimum temperature yesterday: 77 °F (at 1:30 AM)
Average temperature yesterday: 81 °F

High & Low Weather Summary for the Past Weeks

 TemperatureHumidityPressure
High93 °F (May 25, 2:00 PM)100% (May 21, 2:30 AM)29.98 "Hg (May 21, 2:30 AM)
Low68 °F (May 15, 11:30 PM)35% (May 16, 3:00 PM)29.62 "Hg (May 27, 2:30 PM)
Average81 °F74%29.78 "Hg
* Reported May 14 1:00 PM — May 29 1:00 PM, Guangzhou, Weather by CustomWeather, © 2016

Note: Actual official high and low records may vary slightly from our data, if they occured in-between our weather recording intervals... More about our weather records

Advertising

Guangzhou Weather History for the Previous 24 Hours

Scroll right to see more
 ConditionsComfort  
Time TempWeatherWind HumidityBarometerVisibility
1:00 PM
Sun, May 29
88 °FSprinkles. Partly sunny.1 mph70%29.71 "Hg4 mi
12:30 PM90 °FFog.6 mph71%29.74 "Hg3 mi
12:00 PM90 °FFog.6 mph75%29.74 "Hg3 mi
11:30 AM88 °FFog.6 mph79%29.77 "Hg3 mi
11:00 AM86 °FBroken clouds.3 mph84%29.77 "Hg4 mi
10:30 AM84 °FSprinkles. Fog.3 mph89%29.77 "Hg3 mi
10:00 AM86 °FFog.6 mph79%29.77 "Hg3 mi
9:30 AM86 °FFog.3 mph79%29.77 "Hg3 mi
9:00 AM84 °FFog.1 mph84%29.77 "Hg3 mi
8:30 AM84 °FFog.1 mph84%29.77 "Hg3 mi
8:00 AM82 °FFog.1 mph84%29.77 "Hg3 mi
7:30 AM82 °FFog.1 mph84%29.77 "Hg3 mi
7:00 AM81 °FFog.3 mph89%29.77 "Hg3 mi
6:30 AM79 °FFog.1 mph94%29.74 "Hg3 mi
6:00 AM79 °FFog.1 mph89%29.74 "Hg3 mi
5:30 AM79 °FMostly cloudy.3 mph89%29.74 "Hg4 mi
5:00 AM79 °FFog.3 mph89%29.71 "Hg3 mi
4:30 AM79 °FFog.3 mph89%29.71 "Hg3 mi
4:00 AM79 °FFog.1 mph94%29.71 "Hg3 mi
3:30 AM79 °FPartly cloudy.3 mph94%29.71 "Hg4 mi
3:00 AM79 °FPartly cloudy.3 mph89%29.71 "Hg4 mi
2:30 AM79 °FPartly cloudy.3 mph89%29.74 "Hg4 mi
2:00 AM79 °FPassing clouds.3 mph94%29.74 "Hg4 mi
1:30 AM79 °FPassing clouds.3 mph94%29.74 "Hg4 mi
1:00 AM79 °FPassing clouds.3 mph94%29.71 "Hg4 mi
12:30 AM79 °FPassing clouds.3 mph94%29.74 "Hg4 mi
12:00 AM79 °FPassing clouds.1 mph94%29.74 "Hg4 mi
11:30 PM
Sat, May 28
81 °FPassing clouds.3 mph89%29.77 "Hg4 mi
11:00 PM81 °FPassing clouds.1 mph89%29.77 "Hg4 mi
10:30 PM81 °FPassing clouds.1 mph89%29.77 "Hg4 mi
10:00 PM81 °FPassing clouds.3 mph89%29.74 "Hg4 mi
9:30 PM81 °FPassing clouds.3 mph89%29.74 "Hg4 mi
9:00 PM81 °FPassing clouds.1 mph89%29.74 "Hg4 mi
8:30 PM81 °FPassing clouds.3 mph89%29.74 "Hg5 mi
8:00 PM81 °FPassing clouds.3 mph89%29.74 "Hg5 mi
7:30 PM81 °FPassing clouds.6 mph89%29.71 "Hg5 mi
7:00 PM81 °FOvercast.6 mph89%29.71 "Hg5 mi
6:30 PM82 °FMore clouds than sun.8 mph84%29.71 "Hg5 mi
6:00 PM82 °FOvercast.3 mph84%29.68 "Hg5 mi
5:30 PM82 °FLight rain. Overcast.6 mph84%29.68 "Hg6 mi
5:00 PM82 °FLight rain. Overcast.6 mph84%29.68 "Hg6 mi
4:30 PM84 °FLight rain. Broken clouds.8 mph79%29.68 "HgN/A
4:00 PM84 °FBroken clouds.8 mph79%29.68 "HgN/A
3:30 PM86 °FBroken clouds.6 mph79%29.68 "HgN/A
3:00 PM86 °FBroken clouds.8 mph79%29.68 "HgN/A
2:30 PM86 °FBroken clouds.8 mph75%29.71 "HgN/A
2:00 PM84 °FSprinkles. Broken clouds.8 mph84%29.71 "Hg5 mi
Weather by CustomWeather, © 2016

See weather overviewHow to use our weather pages